Погода в Мценске

Погода в Мценске : погода сейчас, прогноз погоды и архив. Всё, что Вы хотите узнать о погоде в Мценске!

Поиск расширенной информации на нашем сайте:

Другие новости

Новости СМИ2

Главная страница сайта

Новости сайта

03.07.2017

Напоминаем, что на нашем специализированном сайте Метеоцентр.Азия вы можете получить высокодетализированные автоматические прогнозы погоды по пунктам России, СНГ и мира в авиационном формате (включающие направление и скорость ветра, видимость, явления погоды, количество и форму облачности, нижнюю и верхнюю границу облачности).


Погода в Мценске - сегодня

Время (UTC), дата Ветер
(°,м/с) 
Видим.   Явления Облачность Т
(°С)
Тd
(°С)
f(%) Тe
(°С)
Pmin
(гПа)
dP
(гПа)
Po
(мм)
O2
(г/м3)
Тmin Tmax R s Состояние
почвы
15 13.07.18 030 (СВ) 29000 м    8/6 600 м верхняя 
[Cu med, cong|Ci fib]
+28.6 +13.3 39 +35  1008.8  -0.8  740  267           
21 13.07.18 тихо ()   4000 м  дымка{ливн. осадки}  10/10 600 м кучево-дожд. 
[Cb calv]
+18.5 +17 91 +31  1010  740  275           
09 14.07.18 140 (ЮВ) 25000 м    8/6 600 м кучево-дожд., средняя 
[Cb calv|Ac trans]
+23.6 +17.3 68 +37  1008.2  739  270           
12 14.07.18 110 (В) 29000 м    8/6 600 м кучево-дожд., средняя 
[Cb calv|Ac trans]
+24.7 +17 62 +38  1006.9  -1.2  738  269           
15 14.07.18 100 (В) 30000 м    6/3 600 м средняя, верхняя 
[Cu med, cong|Ac trans|Ci fib]
+26.1 +17 57 +39  1005.7  -1.1  737  267           
21 14.07.18 180 (Ю) 4000 м  гроза, ливневой дождь  10/10 600 м кучево-дожд. 
[Cb cap]
+18.9 +17.4 91 +34  1007  738  274           
09 15.07.18 320 (СЗ) 21000 м  {ливн. осадки}  8/6 600 м кучево-дожд., средняя, верхняя 
[Cb calv|Ac trans|Ci fib]
+22.4 +18.9 81 +39  1006.4  0.1  738  270           
21 15.07.18 360 (С) 4000 м  зарница  8/6 600 м кучево-дожд., средняя 
[Cb calv|Ac trans]
+18.4 +17.6 95 +33  1005.9  -0.8  737  274           
09 16.07.18 040 (СВ) 30000 м  {ливн. осадки}  8/3 600 м средняя, верхняя 
[Cu hum|Ac trans|Ci fib]
+25.2 +18.8 68 +42  1005  -0.3  737  267           
21 16.07.18 050 (СВ) 4000 м  дымка  8/5 600 м кучево-дожд., верхняя 
[Cb calv|Ci fib]
+19.7 +18.4 92 +37  1004.1  736  272           
09 17.07.18 060 (СВ) 3{10}  30000 м    4/4 600 м 
[Cu hum]
+27.7 +18.2 56 +43  1000.5  -0.5  734  264           
21 17.07.18 010 (С) 10 км    9/9 600 м 
[Sc]
+19.5 +17.5 88 +35  1001  -0.8  733  272           
09 18.07.18 020 (С) 4{10}  20000 м    9/8 600 м кучево-дожд., средняя 
[Cb calv|Ac trans]
+22.4 +17.2 72 +36  999.5  -0.8  733  269           
21 18.07.18 330 (СЗ) 4000 м  в посл. час ливневой дождь  8/8 600 м кучево-дожд. 
[Cb calv]
+19.1 +18 93 +35  999.1  732  271           
09 19.07.18 020 (С) 22000 м    9/9 600 м кучево-дожд. 
[Cb calv]
+22.1 +18.4 80 +38  999.4  0.4  732  269           
12 19.07.18 010 (С) 21000 м    8/8 600 м кучево-дожд. 
[Cb calv]
+22.9 +19.3 80 +41  999.5  0.4  733  268           
15 19.07.18 030 (СВ) 24000 м    5/3 600 м средняя 
[Cu hum|Ac trans]
+23.4 +19.2 77 +41  999.7  0.3  733  267           
21 19.07.18 тихо ()   4000 м  дымка  6/3 600 м средняя, верхняя 
[Sc|Ac trans|Ci fib]
+19.7 +18.7 94 +36  1000.8  733  271           
09 20.07.18 180 (Ю) 28000 м  в посл. час ливневой дождь  8/8 600 м кучево-дожд. 
[Cb calv]
+26.4 +18.6 62 +43  1001.5  0.1  734  265           
21 20.07.18 тихо ()   2000 м  дымка  6/3 600 м кучево-дожд., средняя 
[Cb calv|Ac trans]
+19.7 +19.1 96 +37  1003.6  0.3  735  272           
09 21.07.18 тихо ()   9000 м  дымка{ливн. осадки}  10/10 600 м кучево-дожд. 
[Cb calv]
+21.2 +19.6 91 +40  1005.7  0.8  737  271           
21 21.07.18 020 (С) 4000 м  дымка{ливн. осадки}  10/10 600 м кучево-дожд. 
[Cb calv]
+19.1 +18.3 95 +37  1005.9  737  273           
09 22.07.18 080 (В) 20000 м    8/8 600 м кучево-дожд., средняя 
[Cb calv|Ac trans]
+23.5 +19 76 +41  1005.5  737  269           
21 22.07.18 050 (СВ) 4000 м  дымка  10/6 600 м кучево-дожд., средняя 
[Cb calv|Ac und]
+18.9 +17.9 94 +35  1006.7  0.5  738  274           
09 23.07.18 070 (В) 13000 м    10/10 600 м кучево-дожд. 
[Cb calv]
+19.8 +17.5 87 +35  1006.9  0.2  738  273           
Время (UTC), дата Ветер
(°,м/с) 
Видим.   Явления Облачность Т
(°С)
Тd
(°С)
f(%) Тe
(°С)
Pmin
(гПа)
dP
(гПа)
Po
(мм)
O2
(г/м3)
Тmin Tmax R s Состояние
почвы

Для получения пояснительной информации подведите курсор к названию столбца.

ПОГОДА в Мценске - архив

Всё, что Вы хотите узнать о погоде в Мценске - удобно и подробно!

Выберите нужную дату (начиная с 1 января 2015* года) и нажмите кнопку "Найти".
Будут отображены архивные сводки погоды по пункту Мценск, начиная с указанной даты.


Отображать данные в формате CSV (для использования в таблицах Excel)


Внимание! Наш архив погоды предназначен исключительно для личного некоммерческого использования в познавательных целях. Если Вам необходимы официальные справки о состоянии погоды (для производственных, юридических, коммерческих и т.п. целей), обращайтесь в органы Росгидромета.

*Примечание: данная дата относится к архиву по метеостанциям СССР (Россия, СНГ, Балтия).
Архив по метеостанциям Зарубежной Европы и Азии (кроме Китая) хранится 10 дней, по другим регионам земного шара (Китай, Африка, Америка, Австралия, Океания) - 1 день.

Мценск - район местоположения метеостанции


Название, широта, долгота, высота метеостанции:
Мценск 53.4°ш. 36.5°д. 201 м над ур. моря [Российская Федерация]

Дополнительная информация

В oтличие oт бoльшинства пoгoдных сайтoв мы публикуем пoдрoбную метеoинфoрмацию в детальнoм прoфессиoнальнoм фoрмате.

Характеристики температуры и влажнoсти вoздуха измеряются на высoте 2 м в тени вдали oт зданий и деревьев.
Скoрoсть ветра измеряется на высoте 10 м (на урoвне рoста челoвека скoрoсть ветра ниже в 1.5-2 раза). Если метеoстанция нахoдится в гoрoде или в лесу, тo скoрoсть ветра занижена на 2-4 м/с пo сравнению с oткрытым местoм. Скoрoсть ветра над акватoриями крупных рек и oзёр, а также на вершинах хoлмoв на 2-5 м/с выше, чем в oбычных услoвиях.
Атмoсфернoе давление в разных тoчках местнoсти мoжет значительнo oтличаться oт давления на метеoстанции, в зависимoсти oт услoвий рельефа (при пoдъёме на 10 м давление пoнижается примернo на 1 мм рт.ст.).